|  軌道要素
Epoch 2024 Oct. 17.0 TT = JDT 2460600.5                                         
T 2020 Apr. 27.44118 TT                                 Pike                    
q   0.8289762            (2000.0)            P               Q                  
z  +0.0053931      Peri.   26.60890     -0.13398522     -0.56553805             
 +/-0.0001054      Node   277.67242     -0.99057024     +0.05272334             
e   0.9955292      Incl.  124.80326     -0.02861064     +0.82303521             
From 121 observations 2020 Apr. 26-June 16, mean residual 0".7.                 
 
 |